Paamiut

KL  EN  DA
ASIAQ
Weather Now GREENLAND SURVEY
Updated [WGT/WGST] Temperature [°C] Wind [m/s] Air pressure [hPa] Relative humidity [%] Precipitation [mm]
Present Wind chill Speed Max
17.01 13:00-2,2-7,44,6 ⇖5,9101283n/a
17.01 12:00-2,4-8,25,5 ⇖6,8101283n/a
17.01 11:00-2,3-8,56,3 ⇖8,7101184n/a
17.01 10:00-2,4-8,45,8 ⇑7,8101185n/a
17.01 09:00-2,2-8,97,3 ⇑10,1101087n/a
17.01 08:00-2,4-9,06,9 ⇖9,0100989n/a
17.01 07:00-2,8-9,36,5 ⇖8,6100890n/a
17.01 06:00-2,7-9,16,4 ⇖7,9100889n/a
17.01 05:00-2,8-10,48,9 ⇖11,7100790n/a
17.01 04:00-2,6-9,67,6 ⇖10,3100687n/a
17.01 03:00-3,3-11,39,8 ⇖12,3100590n/a
17.01 02:00-3,8-12,511,5 ⇖13,7100589n/a
17.01 01:00-3,6-12,211,2 ⇖13,9100585n/a
17.01 00:00-4,0-13,011,8 ⇖15,0100587n/a
16.01 23:00-4,4-13,110,7 ⇖12,7100686n/a
16.01 22:00-3,9-12,210,0 ⇖12,1100681n/a
16.01 21:00-4,3-12,08,2 ⇖10,2100785n/a
16.01 20:00-3,6-10,97,6 ⇖9,7100867n/a
16.01 19:00-3,6-11,18,3 ⇖10,0100868n/a
16.01 18:00-4,1-11,67,9 ⇖9,9100874n/a
16.01 17:00-3,9-10,86,7 ⇖8,0100981n/a
16.01 16:00-4,1-11,37,3 ⇖8,8100884n/a
16.01 15:00-4,0-11,47,7 ⇖9,5100886n/a
16.01 14:00-4,1-11,37,4 ⇖9,4100887n/a
16.01 13:00-3,6-10,87,5 ⇖9,2100884n/a
Position: (62.01666667,-49.666667)

[Back]